{"data":{"norad_id":55135,"epoch":"2026-05-25T04:19:51.981600Z","epoch_age_seconds":52723,"freshness":"FRESH","line1":"1 55135U 23003C   26145.18046275  .00023142  00000+0  35251-3 0  9998","line2":"2 55135  97.1530 221.7335 0003302 180.1967 179.9286 15.54496307188709","mean_motion":15.54496307,"eccentricity":0.0003302,"inclination_deg":97.153,"raan_deg":221.7335,"arg_perigee_deg":180.1967,"mean_anomaly_deg":179.9286,"bstar":0.00035251,"rev_number":18870,"period_min":92.634507622539,"perigee_km":401.37786286147,"apogee_km":405.85653333389,"semimajor_km":6781.7541980977,"source":"CELESTRAK","updated_at":"2026-05-25T13:37:58.841952Z"}}